FDX1722 KEWR-KIND

Flight info

Callsign FDX1722
Flight time 1h 26m
Altitude 30000
Route ZIMMZ Q42 HIDON RINTE SNKPT2
Aircraft MD11/H-SDE1E2E3FGHIJ2J3J4J5M1RWXY/LB1D1

Departure

Time 2026-04-24 21:28
Airport Newark Liberty International Airport (KEWR)

Arrival

Time 2026-04-24 22:54
Airport Indianapolis International Airport (KIND)
Time Latitude Longitude Altitude Speed Heading
2026-04-24 21:13 40.67950 -74.18238 30 ft 0 kts 295°
2026-04-24 21:17 40.67925 -74.18175 30 ft 0 kts 209°
2026-04-24 21:18 40.67952 -74.18150 30 ft 0 kts 209°
2026-04-24 21:24 40.67948 -74.18153 30 ft 2 kts 209°
2026-04-24 21:24 40.67920 -74.18163 30 ft 5 kts 182°
2026-04-24 21:24 40.67891 -74.18140 30 ft 3 kts 120°
2026-04-24 21:25 40.67874 -74.18088 30 ft 6 kts 114°
2026-04-24 21:25 40.67854 -74.18049 30 ft 3 kts 140°
2026-04-24 21:25 40.67827 -74.18046 30 ft 6 kts 186°
2026-04-24 21:25 40.67776 -74.18075 30 ft 10 kts 206°
2026-04-24 21:26 40.67717 -74.18112 29 ft 9 kts 205°
2026-04-24 21:26 40.67666 -74.18127 30 ft 7 kts 176°
2026-04-24 21:26 40.67632 -74.18101 30 ft 5 kts 130°
2026-04-24 21:26 40.67607 -74.18061 30 ft 6 kts 129°
2026-04-24 21:27 40.67571 -74.17998 30 ft 10 kts 121°
2026-04-24 21:27 40.67571 -74.17937 30 ft 6 kts 60°
2026-04-24 21:27 40.67641 -74.17880 29 ft 26 kts 26°
2026-04-24 21:27 40.68057 -74.17613 28 ft 108 kts 25°
2026-04-24 21:28 40.68961 -74.17039 32 ft 177 kts 25°
2026-04-24 21:28 40.70128 -74.16317 630 ft 186 kts 27°
2026-04-24 21:28 40.71287 -74.15604 1636 ft 183 kts 26°
2026-04-24 21:28 40.72406 -74.14796 1999 ft 185 kts 23°
2026-04-24 21:29 40.73610 -74.14213 2349 ft 185 kts 17°
2026-04-24 21:29 40.74882 -74.13740 2893 ft 192 kts
2026-04-24 21:29 40.76200 -74.13591 3761 ft 197 kts 353°
2026-04-24 21:29 40.77606 -74.14049 4017 ft 222 kts 330°
2026-04-24 21:30 40.78859 -74.15411 4292 ft 248 kts 305°
2026-04-24 21:30 40.79527 -74.17501 5234 ft 250 kts 282°
2026-04-24 21:30 40.79829 -74.19767 6261 ft 252 kts 278°
2026-04-24 21:30 40.79966 -74.22064 7267 ft 251 kts 272°
2026-04-24 21:31 40.79799 -74.24362 8226 ft 255 kts 264°
2026-04-24 21:31 40.79402 -74.26646 9217 ft 256 kts 263°
2026-04-24 21:31 40.78971 -74.28929 10129 ft 258 kts 264°
2026-04-24 21:31 40.78532 -74.31356 10331 ft 287 kts 264°
2026-04-24 21:32 40.78064 -74.34050 10471 ft 316 kts 264°
2026-04-24 21:32 40.77560 -74.36968 10902 ft 333 kts 263°
2026-04-24 21:32 40.77036 -74.39977 11645 ft 338 kts 263°
2026-04-24 21:32 40.76507 -74.43022 12459 ft 343 kts 263°
2026-04-24 21:33 40.75977 -74.46108 13198 ft 348 kts 263°
2026-04-24 21:33 40.75444 -74.49242 13928 ft 352 kts 263°
2026-04-24 21:33 40.74907 -74.52407 14630 ft 355 kts 263°
2026-04-24 21:33 40.74366 -74.55601 15341 ft 357 kts 263°
2026-04-24 21:34 40.73822 -74.58816 15992 ft 361 kts 263°
2026-04-24 21:34 40.73274 -74.62058 16666 ft 364 kts 263°
2026-04-24 21:34 40.72719 -74.65329 17330 ft 367 kts 263°
2026-04-24 21:34 40.72160 -74.68623 17988 ft 370 kts 263°
2026-04-24 21:35 40.71596 -74.71944 18535 ft 373 kts 263°
2026-04-24 21:35 40.71033 -74.75254 19042 ft 377 kts 263°
2026-04-24 21:35 40.70457 -74.78633 19546 ft 380 kts 263°
2026-04-24 21:35 40.69873 -74.82048 20032 ft 383 kts 263°
2026-04-24 21:36 40.69285 -74.85488 20531 ft 386 kts 263°
2026-04-24 21:36 40.68693 -74.88955 21016 ft 389 kts 263°
2026-04-24 21:36 40.68099 -74.92448 21518 ft 393 kts 263°
2026-04-24 21:36 40.67498 -74.95976 22031 ft 396 kts 263°
2026-04-24 21:37 40.66889 -74.99530 22542 ft 400 kts 263°
2026-04-24 21:37 40.66272 -75.03115 23073 ft 403 kts 263°
2026-04-24 21:37 40.65647 -75.06728 23560 ft 407 kts 263°
2026-04-24 21:37 40.65014 -75.10388 23959 ft 412 kts 263°
2026-04-24 21:38 40.64374 -75.14069 24444 ft 414 kts 263°
2026-04-24 21:38 40.63726 -75.17783 24913 ft 418 kts 263°
2026-04-24 21:38 40.63073 -75.21519 25389 ft 421 kts 263°
2026-04-24 21:38 40.62412 -75.25300 25855 ft 424 kts 263°
2026-04-24 21:39 40.61743 -75.29090 26341 ft 428 kts 263°
2026-04-24 21:39 40.61055 -75.32912 26800 ft 431 kts 263°
2026-04-24 21:39 40.60361 -75.36759 27263 ft 434 kts 263°
2026-04-24 21:39 40.59665 -75.40638 27729 ft 437 kts 264°
2026-04-24 21:40 40.58978 -75.44488 28169 ft 440 kts 264°
2026-04-24 21:40 40.58270 -75.48466 28635 ft 442 kts 264°
2026-04-24 21:40 40.57577 -75.52357 29030 ft 442 kts 264°
2026-04-24 21:40 40.56881 -75.56254 29437 ft 441 kts 264°
2026-04-24 21:41 40.56180 -75.60176 29836 ft 441 kts 264°
2026-04-24 21:41 40.55479 -75.64099 29949 ft 442 kts 264°
2026-04-24 21:41 40.54771 -75.68078 29974 ft 452 kts 264°
2026-04-24 21:42 40.53321 -75.76178 29972 ft 456 kts 264°
2026-04-24 21:42 40.51851 -75.84303 29971 ft 459 kts 264°
2026-04-24 21:43 40.50376 -75.92427 29967 ft 459 kts 264°
2026-04-24 21:43 40.48889 -76.00589 29945 ft 459 kts 263°
2026-04-24 21:44 40.47397 -76.08751 29962 ft 460 kts 263°
2026-04-24 21:44 40.45899 -76.16915 29950 ft 460 kts 263°
2026-04-24 21:45 40.44393 -76.25085 29960 ft 461 kts 263°
2026-04-24 21:45 40.42890 -76.33202 29947 ft 461 kts 263°
2026-04-24 21:46 40.41331 -76.41420 29941 ft 461 kts 263°
2026-04-24 21:46 40.39794 -76.49522 29942 ft 460 kts 263°
2026-04-24 21:47 40.38260 -76.57676 29941 ft 462 kts 263°
2026-04-24 21:47 40.36720 -76.65855 29905 ft 462 kts 263°
2026-04-24 21:48 40.35177 -76.74018 29827 ft 461 kts 262°
2026-04-24 21:48 40.33627 -76.82182 29843 ft 462 kts 262°
2026-04-24 21:49 40.32071 -76.90348 29835 ft 463 kts 262°
2026-04-24 21:49 40.30506 -76.98520 29842 ft 462 kts 261°
2026-04-24 21:50 40.28932 -77.06703 29845 ft 464 kts 262°
2026-04-24 21:50 40.27353 -77.14883 29839 ft 463 kts 262°
2026-04-24 21:51 40.25766 -77.23070 29815 ft 464 kts 261°
2026-04-24 21:51 40.24184 -77.31196 29835 ft 464 kts 261°
2026-04-24 21:52 40.22585 -77.39372 29828 ft 464 kts 261°
2026-04-24 21:52 40.20953 -77.47534 29829 ft 465 kts 261°
2026-04-24 21:53 40.19316 -77.55720 29826 ft 465 kts 261°
2026-04-24 21:53 40.17690 -77.63912 29818 ft 466 kts 261°
2026-04-24 21:54 40.16065 -77.72093 29816 ft 465 kts 261°
2026-04-24 21:54 40.14433 -77.80276 29819 ft 466 kts 260°
2026-04-24 21:55 40.13418 -77.88531 29819 ft 456 kts 272°
2026-04-24 21:55 40.13488 -77.96763 29801 ft 454 kts 276°
2026-04-24 21:56 40.13696 -78.04962 29830 ft 455 kts 275°
2026-04-24 21:56 40.13832 -78.13236 29831 ft 455 kts 275°
2026-04-24 21:57 40.13918 -78.21511 29841 ft 455 kts 275°
2026-04-24 21:57 40.13989 -78.29788 29845 ft 456 kts 275°
2026-04-24 21:58 40.14055 -78.38073 29823 ft 456 kts 275°
2026-04-24 21:58 40.14116 -78.46350 29821 ft 456 kts 275°
2026-04-24 21:59 40.14172 -78.54621 29822 ft 456 kts 275°
2026-04-24 21:59 40.14222 -78.62880 29822 ft 456 kts 275°
2026-04-24 22:00 40.14266 -78.71109 29813 ft 456 kts 274°
2026-04-24 22:00 40.14304 -78.79393 29858 ft 457 kts 274°
2026-04-24 22:01 40.14336 -78.87697 29862 ft 457 kts 274°
2026-04-24 22:01 40.14351 -78.96005 29858 ft 457 kts 274°
2026-04-24 22:02 40.14339 -79.04310 29851 ft 457 kts 274°
2026-04-24 22:02 40.14339 -79.12623 29843 ft 458 kts 274°
2026-04-24 22:03 40.14450 -79.20949 29836 ft 458 kts 275°
2026-04-24 22:03 40.14655 -79.29257 29837 ft 458 kts 275°
2026-04-24 22:04 40.14864 -79.37569 29850 ft 458 kts 275°
2026-04-24 22:04 40.15059 -79.45890 29835 ft 458 kts 274°
2026-04-24 22:05 40.15243 -79.54173 29839 ft 459 kts 274°
2026-04-24 22:05 40.15423 -79.62572 29848 ft 459 kts 274°
2026-04-24 22:06 40.15595 -79.70860 29831 ft 459 kts 274°
2026-04-24 22:06 40.15762 -79.79195 29837 ft 459 kts 274°
2026-04-24 22:07 40.15924 -79.87544 29838 ft 460 kts 274°
2026-04-24 22:07 40.16079 -79.95910 29828 ft 460 kts 274°
2026-04-24 22:08 40.16228 -80.04276 29859 ft 460 kts 274°
2026-04-24 22:08 40.16372 -80.12645 29863 ft 460 kts 273°
2026-04-24 22:09 40.16509 -80.21005 29855 ft 460 kts 273°
2026-04-24 22:09 40.16598 -80.27954 29860 ft 460 kts 273°
2026-04-24 22:10 40.16695 -80.36319 29860 ft 460 kts 273°
2026-04-24 22:10 40.16806 -80.44684 29856 ft 460 kts 273°
2026-04-24 22:11 40.16919 -80.53007 29852 ft 460 kts 273°
2026-04-24 22:11 40.17027 -80.61289 29836 ft 461 kts 272°
2026-04-24 22:12 40.17130 -80.69664 29845 ft 461 kts 272°
2026-04-24 22:12 40.17226 -80.78040 29840 ft 461 kts 272°
2026-04-24 22:13 40.17316 -80.86413 29836 ft 461 kts 272°
2026-04-24 22:13 40.17400 -80.94797 29826 ft 462 kts 272°
2026-04-24 22:14 40.17371 -81.03200 29822 ft 462 kts 271°
2026-04-24 22:14 40.17273 -81.11607 29815 ft 462 kts 271°
2026-04-24 22:15 40.17179 -81.19942 29815 ft 462 kts 271°
2026-04-24 22:15 40.17088 -81.28350 29803 ft 462 kts 271°
2026-04-24 22:16 40.16995 -81.36779 29812 ft 464 kts 270°
2026-04-24 22:16 40.16895 -81.45223 29817 ft 464 kts 270°
2026-04-24 22:17 40.16788 -81.53665 29814 ft 464 kts 270°
2026-04-24 22:17 40.16727 -81.62115 29812 ft 465 kts 273°
2026-04-24 22:18 40.17101 -81.70549 29809 ft 465 kts 276°
2026-04-24 22:18 40.17638 -81.78959 29810 ft 464 kts 276°
2026-04-24 22:19 40.18163 -81.87383 29816 ft 465 kts 276°
2026-04-24 22:19 40.18661 -81.95800 29805 ft 465 kts 276°
2026-04-24 22:20 40.19145 -82.04232 29803 ft 465 kts 275°
2026-04-24 22:20 40.19623 -82.12660 29802 ft 465 kts 275°
2026-04-24 22:21 40.20095 -82.21099 29804 ft 465 kts 275°
2026-04-24 22:21 40.20558 -82.29472 29802 ft 465 kts 275°
2026-04-24 22:22 40.21017 -82.37889 29806 ft 465 kts 275°
2026-04-24 22:22 40.21471 -82.46325 29802 ft 465 kts 275°
2026-04-24 22:23 40.21920 -82.54777 29806 ft 465 kts 275°
2026-04-24 22:23 40.22361 -82.63213 29797 ft 465 kts 275°
2026-04-24 22:24 40.22788 -82.71660 29797 ft 465 kts 275°
2026-04-24 22:24 40.23185 -82.80112 29802 ft 465 kts 275°
2026-04-24 22:25 40.23593 -82.88558 29793 ft 465 kts 275°
2026-04-24 22:25 40.24005 -82.96943 29798 ft 465 kts 275°
2026-04-24 22:26 40.24415 -83.05349 29793 ft 464 kts 275°
2026-04-24 22:26 40.24820 -83.13787 29797 ft 464 kts 275°
2026-04-24 22:27 40.25218 -83.22212 29791 ft 463 kts 275°
2026-04-24 22:27 40.25609 -83.30625 29791 ft 463 kts 275°
2026-04-24 22:28 40.25994 -83.39037 29797 ft 463 kts 275°
2026-04-24 22:28 40.26372 -83.47457 29799 ft 463 kts 275°
2026-04-24 22:29 40.26929 -83.60081 29805 ft 464 kts 274°
2026-04-24 22:29 40.27293 -83.68509 29806 ft 464 kts 274°
2026-04-24 22:30 40.27650 -83.76942 29814 ft 464 kts 274°
2026-04-24 22:30 40.27972 -83.85381 29814 ft 464 kts 274°
2026-04-24 22:31 40.28294 -83.93822 29813 ft 464 kts 273°
2026-04-24 22:31 40.28625 -84.02233 29802 ft 462 kts 272°
2026-04-24 22:32 40.28612 -84.10629 29795 ft 462 kts 268°
2026-04-24 22:32 40.28310 -84.19054 29804 ft 462 kts 267°
2026-04-24 22:33 40.27994 -84.27368 29805 ft 463 kts 268°
2026-04-24 22:33 40.27696 -84.35757 29803 ft 458 kts 266°
2026-04-24 22:34 40.27405 -84.44106 29818 ft 459 kts 266°
2026-04-24 22:34 40.27260 -84.48237 29682 ft 447 kts 266°
2026-04-24 22:34 40.27120 -84.52224 29340 ft 429 kts 266°
2026-04-24 22:35 40.26982 -84.56075 28790 ft 421 kts 266°
2026-04-24 22:35 40.26843 -84.59904 28160 ft 422 kts 266°
2026-04-24 22:35 40.26702 -84.63749 27545 ft 422 kts 266°
2026-04-24 22:35 40.26560 -84.67585 26953 ft 423 kts 266°
2026-04-24 22:36 40.26412 -84.71445 26344 ft 426 kts 265°
2026-04-24 22:36 40.26259 -84.75323 25748 ft 427 kts 265°
2026-04-24 22:36 40.26107 -84.79215 25146 ft 428 kts 265°
2026-04-24 22:36 40.25957 -84.83113 24541 ft 430 kts 266°
2026-04-24 22:37 40.25808 -84.87026 23941 ft 431 kts 266°
2026-04-24 22:37 40.25659 -84.90958 23306 ft 433 kts 266°
2026-04-24 22:37 40.25510 -84.94891 22581 ft 434 kts 265°
2026-04-24 22:37 40.25359 -84.98835 21916 ft 435 kts 265°
2026-04-24 22:38 40.25207 -85.02785 21270 ft 433 kts 265°
2026-04-24 22:38 40.25056 -85.06700 20645 ft 427 kts 265°
2026-04-24 22:38 40.24906 -85.10556 20023 ft 421 kts 265°
2026-04-24 22:38 40.24756 -85.14353 19411 ft 416 kts 265°
2026-04-24 22:39 40.24604 -85.18103 18808 ft 411 kts 264°
2026-04-24 22:39 40.24447 -85.21820 18206 ft 406 kts 264°
2026-04-24 22:39 40.24293 -85.25441 17554 ft 401 kts 264°
2026-04-24 22:39 40.24138 -85.29105 16935 ft 396 kts 264°
2026-04-24 22:40 40.23989 -85.32645 16375 ft 392 kts 264°
2026-04-24 22:40 40.23839 -85.36184 15802 ft 387 kts 263°
2026-04-24 22:40 40.23420 -85.39595 15246 ft 379 kts 250°
2026-04-24 22:40 40.22424 -85.42751 14713 ft 373 kts 241°
2026-04-24 22:41 40.21194 -85.45704 14190 ft 366 kts 238°
2026-04-24 22:41 40.19917 -85.48553 13668 ft 360 kts 237°
2026-04-24 22:41 40.18649 -85.51359 13095 ft 356 kts 237°
2026-04-24 22:41 40.17406 -85.54146 12628 ft 353 kts 238°
2026-04-24 22:42 40.16187 -85.56913 12249 ft 350 kts 238°
2026-04-24 22:42 40.14988 -85.59660 11863 ft 347 kts 238°
2026-04-24 22:42 40.13807 -85.62390 11509 ft 344 kts 238°
2026-04-24 22:42 40.12637 -85.65116 11089 ft 342 kts 238°
2026-04-24 22:43 40.11509 -85.67762 10829 ft 325 kts 238°
2026-04-24 22:43 40.10441 -85.70273 10669 ft 307 kts 238°
2026-04-24 22:43 40.09432 -85.72649 10535 ft 291 kts 238°
2026-04-24 22:43 40.08476 -85.74895 10408 ft 275 kts 238°
2026-04-24 22:44 40.07570 -85.77020 10265 ft 261 kts 238°
2026-04-24 22:44 40.06690 -85.79073 10053 ft 258 kts 237°
2026-04-24 22:44 40.05772 -85.81075 9674 ft 257 kts 235°
2026-04-24 22:44 40.04828 -85.83057 9188 ft 257 kts 235°
2026-04-24 22:45 40.03891 -85.85007 8902 ft 250 kts 235°
2026-04-24 22:45 40.02889 -85.86839 8788 ft 249 kts 228°
2026-04-24 22:45 40.01737 -85.88520 8606 ft 251 kts 225°
2026-04-24 22:45 40.00543 -85.90180 8190 ft 250 kts 225°
2026-04-24 22:46 39.99352 -85.91821 7786 ft 248 kts 225°
2026-04-24 22:46 39.98167 -85.93447 7400 ft 246 kts 225°
2026-04-24 22:46 39.96992 -85.95060 7006 ft 245 kts 225°
2026-04-24 22:46 39.95826 -85.96663 6613 ft 243 kts 226°
2026-04-24 22:47 39.94682 -85.98228 6268 ft 239 kts 225°
2026-04-24 22:47 39.93538 -85.99794 5905 ft 239 kts 225°
2026-04-24 22:47 39.92387 -86.01368 5543 ft 240 kts 225°
2026-04-24 22:47 39.91253 -86.02951 5276 ft 238 kts 226°
2026-04-24 22:48 39.90179 -86.04475 5183 ft 216 kts 226°
2026-04-24 22:48 39.89184 -86.05829 5050 ft 197 kts 224°
2026-04-24 22:48 39.88249 -86.07029 4958 ft 185 kts 223°
2026-04-24 22:48 39.87333 -86.08199 4874 ft 185 kts 223°
2026-04-24 22:49 39.86416 -86.09374 4672 ft 184 kts 223°
2026-04-24 22:49 39.85509 -86.10538 4427 ft 183 kts 223°
2026-04-24 22:49 39.84593 -86.11714 4205 ft 186 kts 223°
2026-04-24 22:49 39.83686 -86.12881 3977 ft 178 kts 223°
2026-04-24 22:50 39.82863 -86.13941 3727 ft 158 kts 222°
2026-04-24 22:50 39.82088 -86.14938 3540 ft 157 kts 222°
2026-04-24 22:50 39.81317 -86.15930 3336 ft 154 kts 221°
2026-04-24 22:50 39.80565 -86.16898 3148 ft 152 kts 222°
2026-04-24 22:51 39.79808 -86.17867 2966 ft 153 kts 221°
2026-04-24 22:51 39.79047 -86.18842 2745 ft 154 kts 226°
2026-04-24 22:51 39.78280 -86.19835 2538 ft 158 kts 225°
2026-04-24 22:51 39.77501 -86.20835 2357 ft 158 kts 227°
2026-04-24 22:52 39.76730 -86.21828 2121 ft 160 kts 227°
2026-04-24 22:52 39.75939 -86.22844 1941 ft 159 kts 227°
2026-04-24 22:52 39.75156 -86.23848 1686 ft 159 kts 229°
2026-04-24 22:52 39.74362 -86.24869 1492 ft 161 kts 230°
2026-04-24 22:53 39.73555 -86.25898 1302 ft 164 kts 231°
2026-04-24 22:53 39.72742 -86.26949 1057 ft 165 kts 230°
2026-04-24 22:53 39.71932 -86.28011 819 ft 167 kts 228°
2026-04-24 22:53 39.71188 -86.28961 792 ft 125 kts 224°
2026-04-24 22:54 39.70697 -86.29585 790 ft 74 kts 224°
2026-04-24 22:54 39.70438 -86.29915 791 ft 29 kts 224°
2026-04-24 22:54 39.70376 -86.29985 790 ft 3 kts 199°
2026-04-24 22:54 39.70316 -86.29945 792 ft 16 kts 138°
2026-04-24 22:55 39.70267 -86.29875 794 ft 4 kts 118°
2026-04-24 22:55 39.70273 -86.29833 795 ft 9 kts 65°
2026-04-24 22:55 39.70318 -86.29765 795 ft 10 kts 46°
2026-04-24 22:55 39.70363 -86.29710 795 ft 8 kts 44°
2026-04-24 22:56 39.70401 -86.29662 797 ft 7 kts 44°
2026-04-24 22:56 39.70431 -86.29625 795 ft 5 kts 44°
2026-04-24 22:56 39.70467 -86.29581 796 ft 10 kts 43°
2026-04-24 22:56 39.70526 -86.29506 795 ft 9 kts 63°
2026-04-24 22:57 39.70514 -86.29450 795 ft 5 kts 124°
2026-04-24 22:57 39.70488 -86.29414 797 ft 4 kts 136°
2026-04-24 22:57 39.70455 -86.29375 799 ft 7 kts 141°
2026-04-24 22:57 39.70415 -86.29360 798 ft 7 kts 187°
2026-04-24 22:58 39.70366 -86.29409 798 ft 9 kts 225°
2026-04-24 22:58 39.70323 -86.29465 797 ft 8 kts 221°
2026-04-24 22:58 39.70278 -86.29458 796 ft 6 kts 147°
2026-04-24 22:58 39.70257 -86.29431 796 ft 2 kts 131°
2026-04-24 22:59 39.70250 -86.29423 796 ft 0 kts 133°